Terminal Aerodrome Forecast
Issued by NWS Twin Cities, MN

Home | Current Version | Previous Version | Graphics & Text | Print | Product List | Glossary On
Versions: 1 2 3 4 5 6 7 8 9 10 11 12 13 14 15
000
FTUS43 KMPX 251720
TAFEAU
TAF
KEAU 251720Z 2518/2618 07011G18KT P6SM FEW050
     FM260000 03003KT P6SM SKC=

USA.gov is the U.S. government's official web portal to all federal, state and local government web resources and services.